Change the Weather History Date:

Monday, April 1, 2013

  Actual Average Record
Temperature  
Mean Temperature 46 °F -  
Max Temperature 52 °F 63 °F 73 °F (2011)
Min Temperature 39 °F 44 °F 35 °F (2002)
Degree Days  
Heating Degree Days 20    
Moisture  
Dew Point 38 °F    
Average Humidity 70    
Maximum Humidity 93    
Minimum Humidity 37    
Precipitation  
Precipitation 0.00 in 0.11 in - ()
Sea Level Pressure  
Sea Level Pressure 29.70 in    
Wind  
Wind Speed 4 mph ()    
Max Wind Speed 9 mph    
Max Gust Speed -    
Visibility 7.5 miles    
Events      
Averages and records for this station are not official NWS values.
T = Trace of Precipitation, MM = Missing Value Source: Averaged Metar Reports

Daily Weather History Graph

Daily Weather History Graph

Search for Another Location

Airport or City:

Trip Planner

Search our weather history database for the weather conditions in past years. The results will help you decide how hot, cold, wet, or windy it might be!

Date:

Astronomy

Apr. 01, 2013 Rise Set
Actual Time 6:51 AM CEST 7:39 PM CEST
Civil Twilight 6:21 AM CEST 8:09 PM CEST
Nautical Twilight 5:45 AM CEST 8:45 PM CEST
Astronomical Twilight 5:08 AM CEST 9:23 PM CEST
Moon 12:44 AM CEST (4/1) 10:07 AM CEST (4/1)
Length of Visible Light 13h 48m
Length of Day
12h 48m
Waning Gibbous, 70% of the Moon is Illuminated
Apr 1
Waning Gibbous
Apr 3
Last Quarter
Apr 10
New
Apr 18
First Quarter
Apr 25
Full

Hourly Weather History & Observations

Time (CEST) Temp. Dew Point Humidity Pressure Visibility Wind Dir Wind Speed Gust Speed Precip Events Conditions
12:55 AM 44.6 °F 41.0 °F 87% 29.62 in - North - - N/A   Mostly Cloudy
1:55 AM 44.6 °F 41.0 °F 87% 29.65 in - North - - N/A   Mostly Cloudy
2:00 AM 45 °F 41 °F 82% 29.66 in 8 mi NNW 5.8 mph - -   Partly Cloudy
2:55 AM 44.6 °F 41.0 °F 87% 29.65 in - North - - N/A   Mostly Cloudy
3:55 AM 42.8 °F 41.0 °F 93% 29.65 in - North - - N/A   Mostly Cloudy
4:55 AM 42.8 °F 37.4 °F 81% 29.68 in - North - - N/A   Mostly Cloudy
5:00 AM 44 °F 38 °F 73% 29.69 in 9 mi ENE 5.8 mph - -   Mostly Cloudy
5:55 AM 42.8 °F 37.4 °F 81% 29.68 in - North - - N/A   Scattered Clouds
6:55 AM 39.2 °F 35.6 °F 87% 29.68 in - North - - N/A   Partly Cloudy
7:55 AM 41.0 °F 37.4 °F 87% 29.71 in - North - - N/A   Mostly Cloudy
8:00 AM 41 °F 37 °F 82% 29.72 in 9 mi Calm Calm - -   Mostly Cloudy
9:55 AM 48.2 °F 37.4 °F 66% 29.71 in - North - - N/A   Scattered Clouds
10:55 AM 50.0 °F 35.6 °F 58% 29.71 in - North - - N/A   Scattered Clouds
11:00 AM 50 °F 35 °F 44% 29.73 in 9 mi ENE 9.2 mph - -   Partly Cloudy
11:55 AM 51.8 °F 35.6 °F 54% 29.71 in - North - - N/A   Scattered Clouds
12:55 PM 51.8 °F 33.8 °F 50% 29.71 in - North - - N/A   Scattered Clouds
1:55 PM 51.8 °F 32.0 °F 47% 29.71 in - North - - N/A   Mostly Cloudy
2:00 PM 51 °F 32 °F 37% 29.73 in 7 mi East 5.8 mph - -   Scattered Clouds
2:55 PM 51.8 °F 33.8 °F 50% 29.71 in - North - - N/A   Mostly Cloudy
3:55 PM 50.0 °F 35.6 °F 58% 29.71 in - North - - N/A   Mostly Cloudy
4:55 PM 50.0 °F 37.4 °F 62% 29.71 in - North - - N/A   Mostly Cloudy
5:00 PM 50 °F 37 °F 51% 29.72 in 6 mi ENE 8.1 mph - -   Mostly Cloudy
5:55 PM 50.0 °F 37.4 °F 62% 29.71 in - North - - N/A   Mostly Cloudy
6:55 PM 48.2 °F 39.2 °F 71% 29.68 in - North - - N/A   Mostly Cloudy
7:55 PM 48.2 °F 39.2 °F 71% 29.71 in - North - - N/A   Mostly Cloudy
8:00 PM 48 °F 40 °F 64% 29.72 in 6 mi East 3.5 mph - -   Overcast
8:55 PM 48.2 °F 39.2 °F 71% 29.71 in - North - - N/A   Mostly Cloudy
9:55 PM 46.4 °F 41.0 °F 81% 29.71 in - North - - N/A   Mostly Cloudy
10:55 PM 42.8 °F 39.2 °F 87% 29.71 in - North - - N/A   Scattered Clouds
11:00 PM 43 °F 40 °F 85% 29.73 in 6 mi NNE 5.8 mph - -   Partly Cloudy